Hourly Data Report for January 29, 2013

BAGOTVILLE A
QUEBEC

48°20'00.000" N
71°00'00.000" W
159.10 m
7060400
71727
YBG

Download Data

Hourly Data (January 2013)
Hourly Data Report for January 29, 2013
TIME
LST
Temp Definition
°C
Dew Point Definition
°C
Rel Hum Definition
%
Precip. Amount Definition
mm

Wind Dir Definition
10's deg

Wind Spd Definition
km/h
Visibility Definition
km
Stn Press Definition
kPa
Hmdx Definition


Wind Chill Definition


Weather Definition


00:00 -12.5 -15.4 79   22 6 24.1 99.83   -16 Snow Showers
01:00 -12.1 -14.0 86     0 24.1 99.83     Snow Showers
02:00 -11.0 -12.8 87     0 24.1 99.87     Snow Showers
03:00 -10.5 -12.6 85     0 24.1 99.88     Snow Showers
04:00 -11.7 -14.0 83   26 4 24.1 99.93   -14 Snow Showers
05:00 -10.5 -12.2 87   31 6 8.0 99.96   -14 Snow Showers
06:00 -10.9 -13.1 84   32 7 24.1 100.08   -15 Mostly Cloudy
07:00 -12.7 -14.7 85     0 24.1 100.11     Mostly Cloudy
08:00 -14.0 -16.2 83   27 4 32.2 100.20   -17 Mainly Clear
09:00 -12.5 -14.5 85     0 32.2 100.26     Mostly Cloudy
10:00 -10.9 -13.5 81   29 9 32.2 100.36   -16 Mostly Cloudy
11:00 -8.9 -13.2 71   33 4 40.2 100.30   -11 Mostly Cloudy
12:00 -8.2 -13.2 67   9 9 40.2 100.17   -13 Mostly Cloudy
13:00 -7.2 -11.9 69   10 9 40.2 100.08   -12 Cloudy
14:00 -6.4 -10.4 73   10 6 40.2 100.01   -9 Mostly Cloudy
15:00 -6.4 -11.2 69   9 7 40.2 99.98   -10 Mostly Cloudy
16:00 -5.6 -9.3 75   10 20 40.2 99.91   -12 Mostly Cloudy
17:00 -5.5 -10.8 66   11 20 40.2 99.83   -12 Mostly Cloudy
18:00 -5.0 -8.9 74   10 22 24.1 99.74   -12 Mostly Cloudy
19:00 -5.5 -9.6 73   10 28 24.1 99.73   -13 Cloudy
20:00 -5.6 -9.3 75   9 30 24.1 99.60   -14 Cloudy
21:00 -6.0 -9.5 76   9 35 24.1 99.49   -15 Cloudy
22:00 -6.0 -8.8 81   10 33 24.1 99.43   -15 Cloudy
23:00 -5.8 -8.9 79   9 37 24.1 99.25   -15 Cloudy

Notes on Data Quality.

Legend

  • E = Estimated
  • M = Missing
  • NA = Not Available*
  • [empty] = Indicates an unobserved value
Date modified: